www.pogodaiklimat.ru
ПОГОДА в Кеми аэропорту
Время
(UTC), дата
16 12.11
17 12.11
18 12.11
19 12.11
20 12.11
21 12.11
22 12.11
23 12.11
00 13.11
01 13.11
02 13.11
03 13.11
04 13.11
05 13.11
06 13.11
07 13.11
08 13.11
09 13.11
10 13.11
11 13.11
12 13.11
13 13.11
14 13.11
15 13.11
17 13.11
18 13.11
19 13.11
20 13.11
21 13.11
00 14.11
01 14.11
02 14.11
03 14.11
04 14.11
05 14.11
06 14.11
07 14.11
08 14.11
09 14.11
10 14.11
11 14.11
12 14.11
13 14.11
14 14.11
15 14.11
16 14.11
17 14.11
18 14.11
19 14.11
20 14.11
21 14.11
22 14.11
23 14.11
00 15.11
01 15.11
02 15.11
03 15.11
04 15.11
05 15.11
06 15.11
07 15.11
08 15.11
09 15.11
10 15.11
11 15.11
12 15.11
13 15.11
14 15.11
15 15.11
16 15.11
17 15.11
18 15.11
19 15.11
20 15.11
21 15.11
22 15.11
23 15.11
00 16.11
01 16.11
02 16.11
03 16.11
04 16.11
05 16.11
06 16.11
07 16.11
08 16.11
09 16.11
10 16.11
11 16.11
12 16.11
13 16.11
14 16.11
15 16.11
16 16.11
17 16.11
18 16.11
19 16.11
20 16.11
21 16.11
22 16.11
23 16.11
00 17.11
01 17.11
02 17.11
03 17.11
04 17.11
05 17.11
06 17.11
07 17.11
08 17.11
09 17.11
10 17.11
11 17.11
12 17.11
13 17.11
14 17.11
15 17.11
16 17.11
17 17.11
18 17.11
19 17.11
20 17.11
21 17.11
22 17.11
23 17.11
00 18.11
01 18.11
02 18.11
03 18.11
04 18.11
05 18.11
06 18.11
07 18.11
08 18.11
09 18.11
10 18.11
11 18.11
12 18.11
13 18.11
14 18.11
15 18.11
16 18.11
17 18.11
18 18.11
19 18.11
20 18.11
21 18.11
22 18.11
23 18.11
00 19.11
01 19.11
02 19.11
03 19.11
04 19.11
05 19.11
06 19.11
07 19.11
08 19.11
09 19.11
10 19.11
11 19.11
12 19.11
13 19.11
14 19.11
15 19.11
Ветер
(напр.,м/с)
Видим. Явления Облачность Т
(С)
Тd
(С)
f
(%)
Тe
(С)
Тes
(С)
Комфортность P
(гПа)
Po
(гПа)
Тmin
(С)
Tmax
(С)
R
(мм)
R24
(мм)
S
(см)
ЮВ 3-5
{6}
27 км 10/0 200 м
[]
-2.6 -3.6 93 -8 -8 очень
холодно
1017.4 1015.9
ЮВ 3-5
{6}
30 км слаб. ливневой снег 10/0 100 м
[]
-2.9 -3.8 93 -8 -8 очень
холодно
1017.2 1015.7
ЮВ 3-5
{6}
30 км 10/0 100 м
[]
-3.0 -4.0 93 -8 -8 очень
холодно
1017.2 1015.7 -4.9 -2.5
В 4-7
{7}
5000 м слаб. ливневой снег 10/0 100 м
[]
-3.2 -3.5 98 -10 -10 очень
холодно
1016.9 1015.4
ЮВ 4-8
{8}
9000 м дымка 10/0 100 м
[]
-3.2 -3.6 97 -10 -10 очень
холодно
1016.8 1015.3
ЮВ 4-8
{8}
16 км 10/0 100 м
[]
-3.2 -3.6 97 -10 -10 очень
холодно
1016.1 1014.6
ЮВ 5-7
{9}
26 км 10/0 100 м
[]
-3.0 -3.6 96 -10 -10 очень
холодно
1015.5 1014.0
ЮВ 4-6
{8}
30 км 10/10 100 м
[]
-2.6 -3.4 94 -9 -9 очень
холодно
1014.9 1013.4
ЮВ 6-9
{9}
35 км 10/0 200 м
[]
-2.1 -3.0 94 -9 -9 очень
холодно
1014.0 1012.5
В 5-9
{9}
1000 м снег 10/0 200 м
[]
-1.8 -2.6 94 -8 -8 очень
холодно
1012.9 1011.4
В 7-11
{11}
1100 м снег 10/0 200 м
[]
-1.8 -2.7 94 -10 -10 очень
холодно
1011.2 1009.7
В 7-11
{13}
1700 м слаб. снег 10/0 200 м
[]
-2.0 -3.0 93 -10 -10 очень
холодно
1009.8 1008.3
В 6-10
{13}
1600 м слаб. снег 10/0 200 м
[]
-1.9 -2.8 94 -9 -9 очень
холодно
1009.3 1007.8
ЮВ 6-11
{12}
900 м снег 10/0 200 м
[]
-1.6 -2.5 94 -9 -9 очень
холодно
1008.6 1007.1
ЮВ 6-10
{12}
4100 м слаб. снег 10/0 200 м
[]
-1.5 -2.4 94 -9 -9 очень
холодно
1008.5 1007.0 -3.3 -1.5
ЮВ 6-10
{11}
40 км в посл. час снег 10/0 200 м
[]
-1.1 -2.1 93 -8 -8 очень
холодно
1008.2 1006.7
ЮВ 5-9
{11}
60 км слаб. ливневой снег 10/0 100 м
[]
-0.6 -1.3 95 -7 -7 холодно 1008.3 1006.8
ЮВ 5-8
{9}
45 км 10/0 100 м
[]
+0.1 -0.6 95 -6 -6 холодно 1008.3 1006.8
ЮВ 5-8
{10}
45 км слаб. ливневой дождь 10/0 100 м
[]
+0.3 -0.1 97 -6 -6 холодно 1008.6 1007.1
ЮВ 4-6
{8}
9000 м дымка 10/0 100 м
[]
+0.5 +0.2 98 -5 -5 холодно 1008.7 1007.2
ЮВ 4-6
{8}
11 км 10/0 50 м
[]
+0.7 +0.5 99 -5 -5 холодно 1008.5 1007.0
ЮВ 4-7
{8}
1900 м дымка 10/0 50 м
[]
+0.6 +0.6 100 -5 -5 холодно 1008.7 1007.2
ЮВ 4-6
{8}
1800 м дымка 10/0 50 м
[]
+0.7 +0.7 100 -5 -5 холодно 1008.4 1006.9
ЮВ 4-7
{7}
600 м туман ?/? +0.6 +0.6 100 -5 -5 холодно 1008.3 1006.8
ЮВ 3-5
{6}
1300 м в посл. час туман 10/0 50 м
[]
+0.6 +0.6 100 -4 -4 прохладно 1008.1 1006.6
В 2-4
{4}
7000 м слаб. дождь 10/0 50 м
[]
+0.6 +0.6 100 -3 -3 прохладно 1007.8 1006.3 -1.5 +0.8
В 2-4
{4}
13 км слаб. дождь со снегом 10/0 100 м
[]
+0.5 +0.5 100 -3 -3 прохладно 1007.3 1005.8
В 3-4
{4}
8000 м слаб. дождь 10/10 100 м
[]
+0.6 +0.5 99 -4 -4 прохладно 1007.0 1005.5
В 2-3
{4}
6000 м слаб. снег 10/0 100 м
[]
+0.4 +0.4 100 -3 -3 прохладно 1006.6 1005.1
В 3-5
{5}
8000 м дымка 10/0 100 м
[]
+0.6 +0.6 100 -4 -4 прохладно 1005.2 1003.8
В 2-3
{4}
1500 м дымка 10/0 50 м
[]
+0.5 +0.5 100 -3 -3 прохладно 1004.3 1002.8
В 2-3
{3}
600 м слаб. дождь 10/0 50 м
[]
+0.5 +0.5 100 -3 -3 прохладно 1004.9 1003.4
В 1-2
{3}
800 м слаб. снег ?/? +0.4 +0.4 100 -2 -2 по сезону 1004.7 1003.2
ЮВ 2-2
{2}
600 м слаб. дождь со снегом ?/? +0.4 +0.4 100 -3 -3 прохладно 1005.1 1003.6
В 1-1
{2}
3400 м слаб. дождь со снегом 10/10 100 м
[]
+0.1 +0.1 100 -2 -2 по сезону 1005.0 1003.5
В 1-1
{1}
2400 м слаб. снег 10/0 100 м
[]
0.0 0.0 100 -2 -2 по сезону 1005.0 1003.5 0.0 +0.7
В 1-1
{1}
13 км слаб. дождь со снегом 10/0 100 м
[]
+0.1 +0.1 100 -2 -2 по сезону 1005.5 1004.0
СВ 1-1
{1}
3800 м слаб. снег 10/0 100 м
[]
+0.1 +0.1 100 -2 -2 по сезону 1005.8 1004.3
СВ 1-1
{2}
1400 м слаб. ливневой дождь 10/0 100 м
[]
+0.3 +0.3 100 -2 -2 по сезону 1006.0 1004.6
С 2-2
{2}
900 м туман 10/0 100 м
[]
+0.3 +0.3 100 -4 -3 прохладно 1006.0 1004.5
С 1-2
{2}
1000 м туман 10/10 100 м
[]
+0.4 +0.4 100 -2 -2 по сезону 1006.5 1005.0
С 1-2
{2}
600 м туман 10/10 <50 м
[]
+0.2 +0.2 100 -2 -2 по сезону 1006.2 1004.7
С 2-3
{3}
5000 м в посл. час туман 10/0 50 м
[]
+0.2 +0.2 100 -4 -4 прохладно 1006.6 1005.1
С 3-3
{3}
28 км 10/10 50 м
[]
+0.1 +0.1 100 -5 -5 холодно 1006.5 1005.0
С 3-4
{4}
40 км 10/10 50 м
[]
0.0 -0.1 99 -5 -5 холодно 1006.0 1004.5
С 3-3
{5}
55 км 9/6 100 м
[]
+0.1 0.0 99 -5 -5 холодно 1006.3 1004.8
С 4-5
{5}
60 км 10/0 100 м
[]
+0.1 -0.1 99 -6 -6 холодно 1006.6 1005.1
С 3-5
{5}
50 км 10/0 100 м
[]
+0.1 -0.2 98 -5 -5 холодно 1007.0 1005.5 -0.2 +0.4
С 4-6
{6}
60 км 10/0 100 м
[]
0.0 -0.3 98 -6 -6 холодно 1007.1 1005.6
С 4-7
{7}
>70 км 9/8 100 м
[]
-0.2 -0.8 96 -6 -6 холодно 1007.1 1005.6
С 5-7
{7}
50 км 9/9 100 м
[]
-0.3 -0.8 96 -7 -7 холодно 1007.9 1006.4
СЗ 3-5
{6}
>70 км 9/0 100 м
[]
-0.2 -0.7 96 -5 -5 холодно 1008.9 1007.4
СЗ 3-6
{6}
>70 км 10/0 100 м
[]
0.0 -0.5 96 -5 -5 холодно 1009.9 1008.4
СЗ 3-5
{6}
50 км 10/0 100 м
[]
-0.2 -0.8 96 -5 -5 холодно 1011.1 1009.6
СЗ 3-4
{5}
60 км 10/0 100 м
[]
-0.8 -1.1 98 -6 -6 холодно 1012.3 1010.8
З 3-4
{5}
55 км 10/0 100 м
[]
-1.3 -1.7 97 -6 -6 холодно 1013.4 1011.9
З 3-4
{5}
50 км 10/0 100 м
[]
-1.4 -1.8 97 -7 -7 холодно 1014.4 1012.9
З 3-4
{4}
1100 м дымка 10/0 50 м
[]
-2.1 -2.1 100 -7 -7 холодно 1015.4 1013.9
З 2-3
{4}
18 км 9/0 50 м
[]
-2.6 -2.8 99 -7 -7 холодно 1016.4 1014.9
З 1-2
{3}
50 км ясно -3.6 -4.3 95 -6 -6 холодно 1017.3 1015.8 -3.7 +0.2
З 1-1
{2}
30 км ясно -5.2 -5.5 98 -8 -8 очень
холодно
1018.4 1016.9
Ю 1-1
{1}
28 км в посл. час туман ясно -5.8 -6.1 98 -8 -8 очень
холодно
1019.5 1018.0
В 1-1
{2}
29 км 1/0
[]
-6.7 -7.2 96 -9 -9 очень
холодно
1020.3 1018.8
ЮВ 1-2
{2}
17 км в посл. час снег ясно -6.7 -7.5 94 -9 -9 очень
холодно
1021.0 1019.5
ЮВ 2-3
{3}
35 км ясно -4.7 -5.3 96 -9 -9 очень
холодно
1021.4 1019.9
ЮВ 2-3
{3}
40 км 9/0 300 м
[]
-3.8 -4.2 97 -8 -8 очень
холодно
1021.6 1020.1
ЮВ 2-4
{5}
40 км 10/0 200 м
[]
-2.9 -3.4 96 -7 -7 холодно 1021.8 1020.2
ЮЗ 4-5
{6}
50 км 10/0 200 м
[]
-0.3 -1.0 95 -6 -6 холодно 1022.0 1020.5
ЮЗ 5-7
{7}
50 км 10/0 200 м
[]
+0.2 -0.6 94 -6 -6 холодно 1022.4 1020.9
ЮЗ 5-8
{8}
60 км 10/0 200 м
[]
+0.6 -0.4 93 -5 -5 холодно 1022.4 1020.9
ЮЗ 5-7
{8}
60 км 10/0 200 м
[]
+0.7 -0.4 92 -5 -5 холодно 1023.0 1021.5
ЮЗ 4-7
{8}
50 км 10/0 200 м
[]
+0.4 -0.5 94 -5 -5 холодно 1023.2 1021.7 -7.2 +0.8
ЮЗ 4-6
{7}
50 км 10/0 100 м
[]
+0.3 -0.4 95 -5 -5 холодно 1023.3 1021.8
ЮЗ 4-6
{7}
40 км 10/0 100 м
[]
+0.4 -0.2 96 -5 -5 холодно 1023.6 1022.1
ЮЗ 2-3
{8}
45 км 10/0 100 м
[]
+0.4 -0.2 96 -3 -3 прохладно 1023.6 1022.1
ЮЗ 5-7
{7}
50 км 10/0 200 м
[]
+0.5 -0.6 92 -6 -6 холодно 1023.7 1022.2
ЮЗ 4-7
{8}
50 км 10/0 200 м
[]
+0.4 -0.4 94 -5 -5 холодно 1023.7 1022.2
ЮЗ 4-6
{6}
40 км 10/0 100 м
[]
+0.4 -0.4 94 -5 -5 холодно 1023.6 1022.1
ЮЗ 4-6
{6}
40 км 10/0 200 м
[]
+0.4 -0.6 93 -5 -5 холодно 1023.7 1022.2
Ю 3-5
{7}
40 км 10/0 200 м
[]
+0.5 -0.5 93 -4 -4 прохладно 1023.6 1022.1
ЮЗ 3-4
{6}
50 км 9/0 300 м
[]
+0.5 -0.9 90 -4 -4 прохладно 1023.7 1022.2
Ю 2-3
{3}
45 км 10/0 300 м
[]
0.0 -0.8 94 -4 -4 прохладно 1023.6 1022.1
Ю 2-3
{4}
55 км 10/0 300 м
[]
+0.7 -0.7 90 -3 -3 прохладно 1023.5 1022.0
Ю 2-3
{5}
50 км 10/0 300 м
[]
+0.6 -0.5 92 -3 -3 прохладно 1023.8 1022.3 -0.4 +1.1
ЮВ 2-3
{4}
25 км 10/0 300 м
[]
+0.5 -0.1 96 -3 -3 прохладно 1023.9 1022.4
ЮВ 2-3
{4}
40 км 10/0 300 м
[]
+0.5 -0.4 94 -3 -3 прохладно 1024.0 1022.5
ЮВ 2-3
{4}
35 км 10/0 300 м
[]
+0.4 -0.2 96 -3 -3 прохладно 1024.1 1022.6
ЮВ 2-3
{4}
45 км 6/0 300 м
[]
+0.4 -0.5 94 -3 -3 прохладно 1024.0 1022.4
ЮВ 2-4
{4}
50 км 10/0 300 м
[]
+0.5 -0.5 93 -3 -3 прохладно 1023.9 1022.4
ЮВ 2-3
{4}
40 км 10/0 600 м
[]
+0.4 -0.5 94 -3 -3 прохладно 1023.8 1022.3
ЮВ 2-4
{4}
35 км 10/10 100 м
[]
+0.3 -0.5 94 -3 -3 прохладно 1023.8 1022.3
ЮВ 3-4
{5}
9000 м слаб. снег 10/10 100 м
[]
+0.2 -0.3 96 -5 -5 холодно 1024.1 1022.6
ЮВ 2-3
{4}
12 км слаб. снег 10/0 100 м
[]
+0.1 -0.3 97 -4 -4 прохладно 1024.0 1022.5
В 3-3
{4}
29 км в посл. час снег 10/0 100 м
[]
+0.1 -0.2 98 -5 -5 холодно 1024.0 1022.5
ЮВ 2-4
{4}
23 км 10/0 100 м
[]
+0.2 -0.2 97 -4 -4 прохладно 1024.2 1022.7
В 3-4
{5}
29 км 10/0 100 м
[]
+0.1 -0.4 96 -5 -5 холодно 1023.9 1022.3 0.0 +0.8
В 2-2
{4}
35 км 10/10 100 м
[]
0.0 -0.4 97 -4 -4 прохладно 1024.1 1022.6
В 3-4
{4}
35 км 10/0 600 м
[]
-0.2 -0.7 96 -5 -5 холодно 1023.8 1022.2
В 2-3
{4}
50 км в посл. час снег 10/0 600 м
[]
-0.4 -1.2 94 -4 -4 прохладно 1023.9 1022.4
В 2-4
{4}
40 км 10/0 600 м
[]
-0.4 -2.0 89 -4 -4 прохладно 1023.3 1021.8
В 2-3
{4}
60 км в посл. час дождь 10/0 300 м
[]
-0.5 -2.4 87 -4 -4 прохладно 1023.0 1021.5
В 2-4
{5}
27 км слаб. дождь со снегом 10/0 300 м
[]
-0.9 -2.4 90 -5 -5 холодно 1022.9 1021.4
ЮВ 2-4
{7}
26 км слаб. ливневой снег 10/0 300 м
[]
-1.1 -2.8 88 -5 -5 холодно 1022.8 1021.3
В 2-4
{6}
20 км слаб. ливневой снег 10/0 300 м
[]
-1.3 -3.0 88 -5 -5 холодно 1022.7 1021.2
В 3-5
{5}
50 км слаб. ливневой снег 10/0 300 м
[]
-1.4 -2.9 90 -6 -6 холодно 1021.9 1020.4
В 3-4
{5}
12 км слаб. снег 10/0 300 м
[]
-1.5 -3.0 89 -7 -7 холодно 1021.2 1019.6
В 3-5
{5}
40 км в посл. час снег 10/0 200 м
[]
-1.5 -2.9 90 -7 -7 холодно 1020.5 1019.0
В 3-4
{5}
15 км 10/0 200 м
[]
-1.4 -2.7 91 -6 -6 холодно 1020.5 1019.0 -1.7 +0.2
В 2-3
{5}
12 км 10/0 200 м
[]
-1.3 -2.5 92 -5 -5 холодно 1020.6 1019.1
В 4-6
{6}
17 км 10/0 200 м
[]
-1.3 -2.5 92 -7 -7 холодно 1020.2 1018.7
В 4-6
{7}
10 км 10/0 200 м
[]
-1.3 -2.5 92 -7 -7 холодно 1020.0 1018.5
В 5-7
{7}
30 км 10/0 200 м
[]
-1.2 -2.7 90 -8 -8 очень
холодно
1019.6 1018.1
В 4-6
{8}
45 км в посл. час снег 10/10 300 м
[]
-1.2 -2.8 89 -7 -7 холодно 1019.1 1017.6
В 4-6
{7}
2700 м слаб. снег 10/0 200 м
[]
-1.6 -2.5 94 -8 -8 очень
холодно
1018.9 1017.4
В 3-5
{6}
5000 м слаб. снег 10/0 300 м
[]
-1.8 -2.7 94 -7 -7 холодно 1018.7 1017.2
В 3-5
{6}
10 км слаб. ливневой снег 10/0 300 м
[]
-1.6 -2.9 91 -7 -7 холодно 1018.7 1017.2
СВ 3-4
{5}
20 км слаб. ливневой снег 10/0 600 м
[]
-1.7 -3.0 91 -7 -7 холодно 1018.5 1017.0
СВ 3-5
{5}
27 км 10/0 300 м
[]
-1.8 -3.2 90 -7 -7 холодно 1018.4 1016.9
СВ 3-5
{6}
29 км слаб. ливневой снег 10/0 300 м
[]
-1.9 -3.2 91 -7 -7 холодно 1018.4 1016.9
СВ 3-5
{5}
30 км в посл. час снег 10/10 300 м
[]
-2.0 -3.3 91 -7 -7 холодно 1018.5 1017.0 -2.0 -1.2
СВ 3-4
{4}
6000 м слаб. ливневой снег 10/10 600 м
[]
-2.2 -3.3 92 -7 -7 холодно 1018.8 1017.3
СВ 2-4
{5}
9000 м слаб. снег 10/0 1000 м
[]
-2.3 -3.3 93 -6 -6 холодно 1019.2 1017.6
СВ 3-4
{4}
5000 м слаб. снег 10/10 1000 м
[]
-2.5 -3.3 94 -8 -8 очень
холодно
1019.4 1017.9
СВ 3-4
{5}
17 км слаб. снег 10/0 1000 м
[]
-2.5 -3.4 94 -8 -8 очень
холодно
1019.8 1018.3
СВ 3-5
{5}
11 км слаб. снег 10/0 1000 м
[]
-2.6 -3.7 92 -8 -8 очень
холодно
1020.1 1018.6
СВ 3-4
{5}
25 км слаб. снег 10/0 600 м
[]
-2.6 -3.7 92 -8 -8 очень
холодно
1020.6 1019.1
СВ 3-4
{4}
40 км в посл. час снег 10/0 600 м
[]
-2.7 -3.7 93 -8 -8 очень
холодно
1020.9 1019.4
СВ 3-3
{4}
40 км 10/0 600 м
[]
-2.7 -3.7 93 -8 -8 очень
холодно
1021.4 1019.9
С 3-4
{4}
40 км 10/0 300 м
[]
-2.7 -3.8 92 -8 -8 очень
холодно
1022.0 1020.5
С 3-3
{4}
14 км слаб. снег 10/0 300 м
[]
-2.9 -3.8 93 -8 -8 очень
холодно
1022.3 1020.8
С 2-3
{4}
17 км слаб. снег 10/10 300 м
[]
-2.9 -3.8 93 -7 -7 холодно 1023.2 1021.6
С 2-3
{3}
15 км слаб. ливневой снег 10/0 300 м
[]
-2.9 -3.7 94 -7 -7 холодно 1023.5 1022.0 -3.1 -1.9
СВ 2-2
{3}
20 км слаб. снег 9/9 1000 м
[]
-2.9 -3.6 95 -7 -7 холодно 1024.2 1022.7
С 2-2
{2}
35 км 10/0 600 м
[]
-2.6 -3.5 94 -7 -7 холодно 1025.0 1023.5
С 2-3
{3}
13 км слаб. снег 10/10 200 м
[]
-2.6 -3.4 94 -7 -7 холодно 1025.4 1023.8
С 2-3
{3}
26 км в посл. час снег 10/0 600 м
[]
-2.4 -3.2 94 -7 -7 холодно 1025.7 1024.1
С 2-3
{3}
30 км слаб. ливневой снег 10/10 600 м
[]
-2.4 -3.2 94 -7 -7 холодно 1026.1 1024.6
-3
{3}
35 км в посл. час снег 10/10 600 м
[]
-2.3 -3.1 94 1026.5 1025.0
С 2-2
{4}
40 км 10/10 300 м
[]
-2.4 -3.0 96 -7 -7 холодно 1026.8 1025.3
СЗ 1-1
{2}
1000 м в посл. час туман 9/9 600 м
[]
-4.2 -4.5 98 -7 -7 холодно 1027.6 1026.1
штиль 0-1
{2}
19 км туман 9/0 100 м
[]
-4.0 -4.3 98 -5 -5 холодно 1027.5 1026.0
В 1-1
{2}
23 км 10/0 100 м
[]
-4.0 -4.3 98 -7 -7 холодно 1027.8 1026.3
СВ 1-2
{2}
20 км 10/0 100 м
[]
-3.8 -4.1 98 -6 -6 холодно 1027.9 1026.4
штиль 0-1
{2}
300 м туман 10/0 50 м
[]
-3.2 -3.3 99 -5 -5 холодно 1028.0 1026.4 -5.2 -2.2
С 1-1
{1}
1100 м в посл. час туман 10/0 50 м
[]
-2.9 -3.0 99 -5 -5 холодно 1028.2 1026.7
С 1-1
{1}
1500 м слаб. ливневой снег 10/10 50 м
[]
-2.9 -3.1 99 -5 -5 холодно 1028.5 1027.0
СВ 1-2
{2}
7000 м дымка 10/10 100 м
[]
-2.7 -2.9 99 -5 -5 холодно 1028.1 1026.6
В 2-3
{4}
7000 м дымка 10/0 300 м
[]
-1.3 -1.4 99 -5 -5 холодно 1027.9 1026.4
В 1-2
{3}
9000 м дымка 10/0 100 м
[]
-1.0 -1.1 99 -3 -3 прохладно 1028.0 1026.5
В 3-5
{5}
5000 м в посл. час дождь 10/0 100 м
[]
+0.1 +0.1 100 -5 -5 холодно 1027.5 1026.0
В 4-5
{5}
5000 м слаб. морось 10/0 100 м
[]
+0.6 +0.6 100 -5 -5 холодно 1027.0 1025.5
В 3-5
{5}
18 км в посл. час осадки 10/10 100 м
[]
+1.2 +1.0 99 -4 -4 прохладно 1026.7 1025.1
В 4-6
{6}
40 км 10/10 100 м
[]
+1.6 +1.3 98 -4 -4 прохладно 1026.3 1024.8
В 5-6
{8}
50 км 10/0 600 м
[]
+1.8 +1.2 96 -4 -4 прохладно 1025.6 1024.1
В 6-9
{9}
60 км 10/10 200 м
[]
+1.9 +1.2 95 -4 -4 прохладно 1025.5 1024.0
ЮВ 4-6
{9}
50 км 10/10 200 м
[]
+2.1 +1.3 94 -3 -3 прохладно 1025.6 1024.1 -3.3 +2.2
В 4-5
{6}
11 км 10/0 200 м
[]
+1.8 +1.3 96 -3 -3 прохладно 1025.8 1024.3
ЮВ 4-7
{7}
3300 м слаб. морось 10/0 200 м
[]
+2.1 +1.6 96 -3 -3 прохладно 1026.1 1024.5
ЮВ 4-7
{8}
5000 м слаб. морось 10/0 100 м
[]
+2.1 +1.6 96 -3 -3 прохладно 1025.9 1024.4
В 5-7
{8}
4800 м в посл. час осадки 10/0 100 м
[]
+2.1 +1.6 96 -4 -4 прохладно 1025.6 1024.1
В 5-8
{8}
10 км 10/0 100 м
[]
+2.0 +1.6 97 -4 -4 прохладно 1025.1 1023.6
В 5-8
{9}
8000 м дымка 10/0 100 м
[]
+2.1 +1.5 96 -4 -4 прохладно 1024.7 1023.2
В 5-7
{9}
13 км в посл. час осадки 10/0 100 м
[]
+2.1 +1.5 96 -4 -4 прохладно 1024.5 1022.9
ЮВ 5-8
{10}
9000 м слаб. морось 10/0 200 м
[]
+2.2 +1.5 95 -4 -4 прохладно 1024.2 1022.7
ЮВ 5-9
{9}
60 км в посл. час дождь 10/0 200 м
[]
+2.4 +1.6 94 -3 -3 прохладно 1024.1 1022.6
Местоположение метеостанции Кеми аэропорт (Финляндия): широта 65.78 долгота 24.58 высота над уровнем моря 19 м.
В архиве по умолчанию представлена погода в Кеми аэропорту за последнюю неделю. Архивные данные за месяц целиком и за предыдущие месяцы, начиная с января 2011 года, Вы можете получить, выбрав интересующий диапазон дат из раскрывающегося списка и нажав кнопку "Найти!".
*Определитесь, кто Вы:
Внимание! Время в таблицах - всемирное. Для получения местного времени необходимо прибавить поправку, которая равна 1 ч.
Смотрите также архив погоды в соседних городах и на ближайших метеорологических станциях:
Партнеры нашего сайта:      
Пояснения к столбцам:
  • Ветер - указаны скорость ветра в м/с - средняя за 10 мин, порывы в срок и между сроками (в фигурных скобках) и направление, откуда дует ветер: С - северный,
  • СВ - северо-восточный, В - восточный, ЮВ - юго-восточный, Ю - южный, ЮЗ - юго-западный, З - западный, СЗ - северо-западный.
  • Видимость - горизонтальная дальность видимости в метрах или километрах. При видимости от 1 до 10 км при отсутствии осадков обычно наблюдается дымка, при ухудшении видимости до 1 км и менее - туман. В сухую погоду видимость может ухудшаться дымом, пылью или мглою.
  • Явления - указаны атмосферные явления, наблюдавшиеся в срок или в последний час перед сроком; фигурными скобками обозначены явления, наблюдавшиеся между сроками (за 1-3 часа до срока); квадратными скобками обозначены град или гололедные отложения с указанием их диаметра в мм.
  • Облачность - указаны через наклонную черту общая и нижняя облачность в баллах и высота нижней границы облаков в метрах; квадратными скобками обозначены формы облаков: Ci - перистые, Cs - перисто-слоистые, Cc - перисто-кучевые, Ac - высококучевые, As - высокослоистые, Sc - слоисто-кучевые, Ns - слоисто-дождевые, Cu - кучевые, Cb - кучево-дождевые. Подробнее классификацию облаков см. в Атласе облаков (PDF).
  • T - Температура воздуха - температура, измеренная на высоте 2 м над землей.
  • Td - Температура точки росы - температура, при понижении до которой содержащийся в воздухе водяной пар достигнет насыщения.
  • f - Относительная влажность воздуха - влажноcть воздуха, измеренная на высоте 2 м над землей.
  • Te - Эффективная температура - температура, которую ощущает одетый по сезону человек в тени. Характеристика душности погоды. При расчете учитывается влияние влажности воздуха и скорости ветра на теплоощущения человека.
  • Tes - Эффективная температура на солнце - температура, которую ощущает человек, с поправкой на солнечный нагрев. Характеристика знойности погоды. Зависит от высоты солнца над горизонтом, облачности и скорости ветра. Ночью, в пасмурную погоду, а также при ветре 12 м/с и более поправка равна нулю.
  • P - Атмосферное давление - приведенное к уровню моря атмосферное давление.
  • Po - Атмосферное давление - измеренное на уровне метеостанции атмосферное давление.
  • Tmin - Минимальная температура - минимум температуры воздуха на высоте 2 м над землей.
  • Tmax - Максимальная температура - максимум температуры воздуха на высоте 2 м над землей.
  • R - Количество осадков - Количество выпавших осадков за период времени, мм. При наведении курсора мыши на число - период времени, за который выпало указанное количество осадков.
  • R24 - Количество осадков - Количество выпавших осадков за 24 часа, мм.
  • S - Снежный покров - Высота снежного покрова, см. При наведении курсора мыши на число - состояние снежного покрова и степень покрытия местности в баллах.